AirNav   Air Wisconsin pilot careers
 
 1624 users online  

KAJO Corona Municipal Airport
Corona, California, USA

GOING TO CORONA?


FAA INFORMATION EFFECTIVE 11 OCTOBER 2018

Location

FAA Identifier: AJO
Lat/Long: 33-53-51.5547N / 117-36-08.7831W
33-53.859245N / 117-36.146385W
33.8976541 / -117.6024398
(estimated)
Elevation: 533 ft. / 162.5 m (surveyed)
Variation: 14E (1980)
From city: 3 miles NW of CORONA, CA
Time zone: UTC -7 (UTC -8 during Standard Time)
Zip code: 92880

Airport Operations

Airport use: Open to the public
Activation date: 04/1960
Control tower: no
ARTCC: LOS ANGELES CENTER
FSS: RIVERSIDE FLIGHT SERVICE STATION
NOTAMs facility: AJO (NOTAM-D service available)
Attendance: MON-FRI 0700-1700
Pattern altitude: NO TURNS ONTO XW LEG TIL ACFT IS WI 300 FT OF RECOMMENDED TPA.
Wind indicator: lighted
Segmented circle: yes
Lights: ACTVT MIRL RY 07/25 VASI & REIL RY 25 - CTAF.
Beacon: white-green (lighted land airport)
Operates sunset to sunrise.

Airport Communications

CTAF/UNICOM: 122.7
WX AWOS-3PT: 132.175 (951-340-4764)
SOCAL APPROACH: 135.4
SOCAL DEPARTURE: 135.4
WX ASOS at CNO (5 nm N): PHONE 909-393-5823
WX ASOS at RAL (8 nm NE): PHONE 951-352-4392
WX ASOS at ONT (10 nm N): PHONE 909-937-2186
WX AWOS-3P at CCB (14 nm N): 119.525 (909-985-4731)
WX AWOS-3PT at POC (15 nm NW): 124.4 (909-596-1523)
WX ASOS at SNA (19 nm SW): PHONE 714-424-0590
WX ASOS at FUL (19 nm W): PHONE 714-870-1372
  • FOR CLNC DEL CALL SOCAL APCH (800) 448-3724.

Nearby radio navigation aids

VOR radial/distance  VOR name  Freq  Var
PDZr236/3.8PARADISE VORTAC112.2015E
RALr232/(8.3)RIVERSIDE VOR112.4014E
POMr125/14.2POMONA VORTAC110.4015E
ELBr012/14.8EL TORO VOR/DME117.2014E
HDFr275/(22.0)HOMELAND VOR113.4014E
SLIr058/23.6SEAL BEACH VORTAC115.7015E

 
NDB name  Hdg/Dist  Freq  Var  ID
EL MONTE103/24.235915EEMT . -- -

Airport Services

Fuel available: 100LL JET-A
Parking: tiedowns
Airframe service: MAJOR
Powerplant service: MAJOR
Bottled oxygen: NONE
Bulk oxygen: NONE

Runway Information

Runway 7/25

Dimensions: 3200 x 60 ft. / 975 x 18 m
Surface: asphalt, in good condition
Weight bearing capacity: 
Single wheel: 12.0
Runway edge lights: medium intensity
RUNWAY 7  RUNWAY 25
Latitude: 33-53.855827N33-53.863912N
Longitude: 117-36.462810W117-35.830277W
Elevation: 515.0 ft.533.0 ft.
Gradient: 0.6%0.6%
Traffic pattern: rightleft
Runway heading: 075 magnetic, 089 true255 magnetic, 269 true
Displaced threshold: 194 ft.196 ft.
Markings: basic, in fair conditionbasic, in fair condition
Visual slope indicator: 4-box VASI on left (4.00 degrees glide path)
Runway end identifier lights: yes
Touchdown point: yes, no lightsyes, no lights
Obstructions: 40 ft. trees, 400 ft. from runway, 265 ft. both sides of centerline, 5:1 slope to clear
RWY 07 APCH RATIO TO DSPLCD THR 20:1
6 ft. fence, lighted, 200 ft. from runway
RWY 25 APCH RATIO TO DSPLCD THR 34:1.

Airport Ownership and Management from official FAA records

Ownership: Publicly-owned
Owner: CITY OF CORONA
400 SOUTH VICENTIA AVE, 915 WILSHIRE BOULEVARD
CORONA, CA 92882
Phone (951)736-2289
ON LEASE TO CITY OF CORONA FROM ARMY CORPS OF ENGINEERS.
Manager: CURTIS SHOWALTER
755 CORPORATION YARD WAY
CORONA, CA 92880
Phone (951) 279-3677
AIRPORT ADDRESS: 1900 AVIATION DRIVE, CORONA, CA 92880.

Airport Operational Statistics

Aircraft based on the field: 242
Single engine airplanes: 212
Multi engine airplanes: 26
Helicopters: 4
    
Aircraft operations: avg 137/day *
73% local general aviation
27% transient general aviation
* for 12-month period ending 30 June 2017

Additional Remarks

NOISE ABATEMENT PROCEDURES: RY 25 STRAIGHT-IN APCH NOT RECOMMENDED. AVOID FLYING OVER HOUSES ON BLUFF AT EAST END. FLY OVER WASH/CREEK. RY 07 REQUIRES A 15 DEG RIGHT TURN AT DEP END TO FOLLOW WASH/CREEK.
UNLGTD TWR 828 FT MSL 3 MILES E OF ARPT.
NO INTERSECTION TAKEOFFS.
NO TOUCH AND GO OPERATIONS ON WKNDS AND HOLS.
NO HELICOPTER TRNG AFTER 2000

Instrument Procedures

NOTE: All procedures below are presented as PDF files. If you need a reader for these files, you should download the free Adobe Reader.

NOT FOR NAVIGATION. Please procure official charts for flight.
FAA instrument procedures published for use from 11 October 2018 at 0901Z to 8 November 2018 at 0900Z.

 
STARs - Standard Terminal Arrivals
SETER FIVE   download (260KB)
ZIGGY SEVEN   2 pages: [1] [2] (411KB)
 
IAPs - Instrument Approach Procedures
VOR OR GPS-A   download (218KB)
NOTE: Special Take-Off Minimums/Departure Procedures apply   download (132KB)

Other nearby airports with instrument procedures:

KCNO - Chino Airport (5 nm N)
KRAL - Riverside Municipal Airport (8 nm NE)
KONT - Ontario International Airport (10 nm N)
KRIR - Flabob Airport (11 nm NE)
KCCB - Cable Airport (14 nm N)
KPOC - Brackett Field Airport (15 nm NW)
KRIV - March Air Reserve Base (17 nm E)
KSNA - John Wayne-Orange County Airport (19 nm SW)
KFUL - Fullerton Municipal Airport (19 nm W)
 
Loc | Ops | Rwys | IFR | FBO | Links
Com | Nav | Svcs | Stats | Notes

San Bernardino International Airport Authority
 
Area around KAJO (Corona Municipal Airport)
 
Road maps at: MapQuest Bing Google
 
Aerial photo
WARNING: Photo may not be current or correct
Aerial photo of KAJO (Corona Municipal Airport)
Photo by Fred Emmert AirViews.com
Photo taken 09-Feb-2015
looking southeast.

Do you have a better or more recent aerial photo of Corona Municipal Airport that you would like to share? If so, please send us your photo.

 
Sectional chart

 
Airport diagram
CAUTION: Diagram may not be current
Diagram of KAJO (Corona Municipal Airport)
 
Airport distance calculator
Flying to Corona Municipal Airport? Find the distance to fly.

From to KAJO

Sunrise and sunset
Times for 16-Oct-2018
 Local
(UTC-7)
 Zulu
(UTC)
Morning civil twilight06:3213:32
Sunrise06:5713:57
Sunset18:1501:15
Evening civil twilight18:4001:40

Current date and time
Zulu (UTC)  16-Oct-2018 17:17:56
Local (UTC-7)  16-Oct-2018 10:17:56
 
METAR
KAJO 161656Z AUTO 07016G29KT 10SM CLR 24/M10 A3006 RMK AO2 PK WND 07030/1639 SLP186 T02391100 $
KCNO 
5nm N 
161653Z 05011G23KT 10SM CLR 24/M11 A3006 RMK AO2 PK WND 05027/1614 SLP173 T02441106
KRAL 
8nm NE 
161653Z 01014G26KT 10SM CLR 22/M13 A3006 RMK AO2 PK WND 35026/1650 SLP166 T02221128
KONT 
9nm N 
161653Z 05014G23KT 10SM CLR 23/M11 A3006 RMK AO2 SLP166 T02331106
KCCB 
14nm N 
119.525 909-985-4731
161655Z AUTO 25006KT 10SM CLR 20/M12 A3007 RMK AO2
KPOC 
15nm NW 
161647Z 00000KT 10SM CLR 20/M07 A3008
KRIV 
17nm E 
161658Z AUTO 08005KT 10SM CLR 21/M12 A3007 RMK AO2 SLP177 T02131116 PNO $
KFUL 
19nm W 
161653Z 31005KT 10SM CLR 22/M04 A3005 RMK AO2 SLP175 T02221039
KSNA 
19nm SW 
161653Z 05013KT 10SM CLR 26/M08 A3004 RMK AO2 SLP172 T02561078
TAF
KONT 
9nm N 
161123Z 1612/1718 04014G22KT P6SM SKC FM162200 35010KT P6SM SKC FM170100 05005KT P6SM SKC
KRIV 
17nm E 
152359Z 1523/1702 02009KT 9999 FEW110 QNH3001INS TEMPO 1523/1602 02015G25KT 520009 BECMG 1601/1602 02012G18KT 9999 SKC QNH3005INS BECMG 1603/1604 01009KT 9999 SKC QNH3005INS BECMG 1614/1615 02012KT 9999 SKC QNH3000INS TEMPO 1616/1624 36012G18KT BECMG 1700/1701 02009KT 9999 SKC QNH3000INS TX24/1523Z TN08/1612Z
KSNA 
19nm SW 
161123Z 1612/1712 VRB05KT P6SM SKC WS020/05020KT FM161500 06010G20KT P6SM SKC FM162100 26009KT P6SM SKC FM170200 VRB05KT P6SM SKC
NOTAMs
Click for the latest NOTAMs
NOTAMs are issued by the DoD/FAA and will open in a separate window not controlled by AirNav.

 

 
 

FBO, Fuel Providers, and Aircraft Ground Support

  
 Business Name 
 
 Contact 
 
 Services / Description 
 
Fuel Prices
 
Comments
  
 Corona Air Ventures
951-737-1300
[web site]
Aviation fuel, Aircraft parking (ramp or tiedown), Public telephone, Restrooms
 
Wireless Internet Access (WiFi)  
 
More info about Corona Air Ventures
Phillips 66
100LL
AS $4.59 
GUARANTEED
 
   write
AS=Assisted/Self Service
Update Fuel Prices
 

Would you like to see your business listed on this page?

 If your business provides an interesting product or service to pilots, flight crews, aircraft, or users of the Corona Municipal Airport, you should consider listing it here.  To start the listing process, click on the button below
 
Add a business
 

Other Pages about Corona Municipal Airport

discovercorona.com/...
 
Update a link
 
Copyright © AirNav, LLC. All rights reserved. Privacy Policy  Contact